GIA402 WADD-WAAA

Flight info

Callsign GIA402
Flight time 0h 58m
Altitude 37000
Route PEDET W41 LIPOT
Aircraft B763/H-SDE3FGHIM3RWXY/LB1

Departure

Time 2026-04-22 13:15
Airport Denpasar I Gusti Ngurah Rai International Airport (WADD)

Arrival

Time 2026-04-22 14:13
Airport Sultan Hasanuddin International Airport (WAAA)
Time Latitude Longitude Altitude Speed Heading
2026-04-22 12:40 -8.74566 115.16474 29 ft 0 kts 358°
2026-04-22 13:00 -8.74573 115.16474 29 ft 2 kts 358°
2026-04-22 13:00 -8.74588 115.16475 28 ft 2 kts 358°
2026-04-22 13:01 -8.74603 115.16475 28 ft 2 kts 358°
2026-04-22 13:01 -8.74618 115.16476 27 ft 2 kts 358°
2026-04-22 13:01 -8.74633 115.16476 27 ft 2 kts 358°
2026-04-22 13:01 -8.74648 115.16476 27 ft 2 kts 358°
2026-04-22 13:02 -8.74658 115.16477 27 ft 2 kts 358°
2026-04-22 13:02 -8.74672 115.16480 26 ft 2 kts 327°
2026-04-22 13:02 -8.74683 115.16490 26 ft 2 kts 301°
2026-04-22 13:02 -8.74688 115.16504 26 ft 2 kts 276°
2026-04-22 13:03 -8.74688 115.16512 26 ft 0 kts 267°
2026-04-22 13:06 -8.74689 115.16508 26 ft 3 kts 267°
2026-04-22 13:06 -8.74691 115.16451 26 ft 10 kts 268°
2026-04-22 13:06 -8.74694 115.16373 27 ft 11 kts 268°
2026-04-22 13:07 -8.74697 115.16289 27 ft 12 kts 268°
2026-04-22 13:07 -8.74700 115.16196 26 ft 14 kts 266°
2026-04-22 13:07 -8.74706 115.16084 22 ft 17 kts 267°
2026-04-22 13:07 -8.74711 115.15951 18 ft 20 kts 268°
2026-04-22 13:08 -8.74716 115.15799 16 ft 22 kts 267°
2026-04-22 13:08 -8.74721 115.15677 17 ft 17 kts 268°
2026-04-22 13:08 -8.74726 115.15556 18 ft 16 kts 268°
2026-04-22 13:08 -8.74728 115.15485 18 ft 1 kts 268°
2026-04-22 13:09 -8.74729 115.15462 18 ft 4 kts 266°
2026-04-22 13:09 -8.74738 115.15427 19 ft 5 kts 243°
2026-04-22 13:09 -8.74761 115.15404 20 ft 3 kts 208°
2026-04-22 13:09 -8.74781 115.15400 21 ft 2 kts 183°
2026-04-22 13:10 -8.74782 115.15400 21 ft 0 kts 183°
2026-04-22 13:11 -8.74786 115.15399 21 ft 2 kts 183°
2026-04-22 13:11 -8.74810 115.15399 22 ft 4 kts 180°
2026-04-22 13:12 -8.74843 115.15398 22 ft 5 kts 180°
2026-04-22 13:12 -8.74882 115.15399 22 ft 4 kts 171°
2026-04-22 13:12 -8.74894 115.15419 22 ft 3 kts 97°
2026-04-22 13:12 -8.74895 115.15443 22 ft 0 kts 88°
2026-04-22 13:14 -8.74895 115.15461 22 ft 11 kts 88°
2026-04-22 13:14 -8.74883 115.15731 19 ft 66 kts 87°
2026-04-22 13:15 -8.74857 115.16385 23 ft 119 kts 86°
2026-04-22 13:15 -8.74815 115.17394 32 ft 166 kts 85°
2026-04-22 13:15 -8.74744 115.18604 504 ft 178 kts 83°
2026-04-22 13:15 -8.74618 115.19798 1447 ft 167 kts 83°
2026-04-22 13:16 -8.74555 115.21016 1780 ft 187 kts 87°
2026-04-22 13:16 -8.74509 115.22408 2088 ft 210 kts 86°
2026-04-22 13:16 -8.74454 115.23955 2504 ft 229 kts 86°
2026-04-22 13:16 -8.74394 115.25613 3021 ft 249 kts 87°
2026-04-22 13:17 -8.74328 115.27402 3733 ft 262 kts 87°
2026-04-22 13:17 -8.74261 115.29231 4657 ft 266 kts 87°
2026-04-22 13:17 -8.74191 115.31104 5590 ft 271 kts 87°
2026-04-22 13:17 -8.74121 115.32999 6519 ft 275 kts 87°
2026-04-22 13:18 -8.74048 115.34938 7465 ft 278 kts 86°
2026-04-22 13:18 -8.73976 115.36877 8361 ft 283 kts 86°
2026-04-22 13:18 -8.73900 115.38876 9010 ft 295 kts 86°
2026-04-22 13:18 -8.73820 115.40990 8992 ft 298 kts 86°
2026-04-22 13:19 -8.73745 115.43018 8992 ft 284 kts 86°
2026-04-22 13:19 -8.73670 115.45006 9004 ft 280 kts 86°
2026-04-22 13:19 -8.73595 115.46976 9019 ft 284 kts 86°
2026-04-22 13:19 -8.73516 115.48972 9016 ft 287 kts 84°
2026-04-22 13:20 -8.73007 115.50915 9022 ft 282 kts 59°
2026-04-22 13:20 -8.71803 115.52438 9045 ft 282 kts 46°
2026-04-22 13:20 -8.70417 115.53893 9014 ft 284 kts 46°
2026-04-22 13:20 -8.69050 115.55313 9008 ft 282 kts 45°
2026-04-22 13:21 -8.67664 115.56728 9006 ft 281 kts 45°
2026-04-22 13:21 -8.66283 115.58126 9009 ft 282 kts 45°
2026-04-22 13:21 -8.64877 115.59545 9097 ft 287 kts 45°
2026-04-22 13:21 -8.63456 115.60973 9903 ft 290 kts 45°
2026-04-22 13:22 -8.62035 115.62401 10767 ft 298 kts 45°
2026-04-22 13:22 -8.60486 115.63955 10962 ft 329 kts 45°
2026-04-22 13:22 -8.58796 115.65649 11165 ft 358 kts 45°
2026-04-22 13:22 -8.57010 115.67439 11925 ft 367 kts 45°
2026-04-22 13:23 -8.55296 115.69346 12863 ft 369 kts 54°
2026-04-22 13:23 -8.54086 115.71652 13686 ft 375 kts 68°
2026-04-22 13:23 -8.53177 115.74143 14419 ft 382 kts 68°
2026-04-22 13:23 -8.52210 115.76656 15209 ft 387 kts 68°
2026-04-22 13:24 -8.51249 115.79194 15974 ft 392 kts 68°
2026-04-22 13:24 -8.50271 115.81764 16662 ft 398 kts 68°
2026-04-22 13:24 -8.49273 115.84391 17411 ft 402 kts 68°
2026-04-22 13:24 -8.48280 115.87005 18095 ft 407 kts 68°
2026-04-22 13:25 -8.47248 115.89717 18771 ft 412 kts 68°
2026-04-22 13:25 -8.46218 115.92426 19442 ft 417 kts 68°
2026-04-22 13:25 -8.45186 115.95140 20076 ft 421 kts 68°
2026-04-22 13:25 -8.44127 115.97926 20694 ft 425 kts 68°
2026-04-22 13:26 -8.43064 116.00726 21249 ft 430 kts 68°
2026-04-22 13:26 -8.42006 116.03513 21809 ft 434 kts 68°
2026-04-22 13:26 -8.40916 116.06381 22334 ft 438 kts 68°
2026-04-22 13:26 -8.39821 116.09264 22889 ft 441 kts 68°
2026-04-22 13:27 -8.38718 116.12167 23392 ft 445 kts 68°
2026-04-22 13:27 -8.37611 116.15077 23896 ft 449 kts 68°
2026-04-22 13:27 -8.36482 116.18038 24425 ft 451 kts 68°
2026-04-22 13:27 -8.35129 116.20869 24835 ft 454 kts 59°
2026-04-22 13:28 -8.33298 116.23478 25321 ft 456 kts 50°
2026-04-22 13:28 -8.31063 116.25763 25732 ft 459 kts 40°
2026-04-22 13:28 -8.28480 116.27649 26151 ft 462 kts 32°
2026-04-22 13:28 -8.25626 116.29148 26527 ft 466 kts 26°
2026-04-22 13:29 -8.22621 116.30524 26885 ft 469 kts 25°
2026-04-22 13:29 -8.19645 116.31908 27282 ft 471 kts 26°
2026-04-22 13:29 -8.16663 116.33300 27600 ft 475 kts 26°
2026-04-22 13:29 -8.13643 116.34718 27998 ft 477 kts 26°
2026-04-22 13:30 -8.10648 116.36128 28371 ft 479 kts 26°
2026-04-22 13:30 -8.07619 116.37556 28858 ft 478 kts 26°
2026-04-22 13:30 -8.04599 116.38981 29319 ft 479 kts 26°
2026-04-22 13:30 -8.01580 116.40404 29835 ft 478 kts 26°
2026-04-22 13:31 -7.98564 116.41827 30340 ft 477 kts 26°
2026-04-22 13:31 -7.95563 116.43243 30968 ft 472 kts 26°
2026-04-22 13:31 -7.92580 116.44650 31455 ft 472 kts 26°
2026-04-22 13:31 -7.89619 116.46047 31905 ft 471 kts 26°
2026-04-22 13:32 -7.86620 116.47462 32365 ft 471 kts 26°
2026-04-22 13:32 -7.83659 116.48858 32844 ft 470 kts 26°
2026-04-22 13:32 -7.80699 116.50255 33315 ft 471 kts 26°
2026-04-22 13:32 -7.77717 116.51661 33787 ft 471 kts 26°
2026-04-22 13:33 -7.74748 116.53060 34265 ft 470 kts 26°
2026-04-22 13:33 -7.71774 116.54462 34743 ft 469 kts 26°
2026-04-22 13:33 -7.68802 116.55862 35168 ft 469 kts 26°
2026-04-22 13:33 -7.65844 116.57256 35561 ft 469 kts 26°
2026-04-22 13:34 -7.62887 116.58648 35953 ft 468 kts 26°
2026-04-22 13:34 -7.59926 116.60043 36313 ft 468 kts 26°
2026-04-22 13:34 -7.56934 116.61453 36660 ft 468 kts 26°
2026-04-22 13:34 -7.54027 116.62884 36876 ft 467 kts 31°
2026-04-22 13:35 -7.51315 116.64703 36868 ft 467 kts 40°
2026-04-22 13:35 -7.46813 116.69393 36876 ft 465 kts 50°
2026-04-22 13:36 -7.43116 116.73737 36874 ft 465 kts 50°
2026-04-22 13:36 -7.38920 116.78716 36873 ft 466 kts 50°
2026-04-22 13:37 -7.34719 116.83720 36874 ft 465 kts 50°
2026-04-22 13:37 -7.30569 116.88666 36883 ft 464 kts 50°
2026-04-22 13:38 -7.26404 116.93628 36885 ft 464 kts 50°
2026-04-22 13:38 -7.20159 117.01067 36883 ft 464 kts 50°
2026-04-22 13:39 -7.15990 117.06031 36883 ft 464 kts 50°
2026-04-22 13:39 -7.11811 117.11006 36885 ft 465 kts 51°
2026-04-22 13:40 -7.07651 117.15958 36884 ft 463 kts 50°
2026-04-22 13:40 -7.03488 117.20911 36883 ft 463 kts 50°
2026-04-22 13:41 -6.99319 117.25868 36885 ft 463 kts 50°
2026-04-22 13:41 -6.95184 117.30785 36883 ft 463 kts 51°
2026-04-22 13:42 -6.91011 117.35744 36870 ft 464 kts 51°
2026-04-22 13:42 -6.86848 117.40692 36863 ft 464 kts 51°
2026-04-22 13:43 -6.82664 117.45662 36862 ft 465 kts 51°
2026-04-22 13:43 -6.78458 117.50657 36863 ft 465 kts 51°
2026-04-22 13:44 -6.74290 117.55606 36863 ft 463 kts 51°
2026-04-22 13:44 -6.70130 117.60543 36860 ft 462 kts 51°
2026-04-22 13:45 -6.65653 117.65178 36871 ft 464 kts 44°
2026-04-22 13:45 -6.60914 117.69593 36864 ft 465 kts 44°
2026-04-22 13:46 -6.56169 117.73991 36863 ft 464 kts 44°
2026-04-22 13:46 -6.51380 117.78421 36864 ft 464 kts 44°
2026-04-22 13:47 -6.46648 117.82796 36864 ft 464 kts 44°
2026-04-22 13:47 -6.41904 117.87179 36676 ft 459 kts 44°
2026-04-22 13:48 -6.39533 117.89370 35967 ft 462 kts 44°
2026-04-22 13:48 -6.37168 117.91554 35301 ft 462 kts 44°
2026-04-22 13:48 -6.34794 117.93747 34568 ft 463 kts 44°
2026-04-22 13:48 -6.32430 117.95931 33767 ft 465 kts 44°
2026-04-22 13:49 -6.30040 117.98138 32967 ft 466 kts 44°
2026-04-22 13:49 -6.27664 118.00331 32198 ft 468 kts 44°
2026-04-22 13:49 -6.25273 118.02537 31464 ft 468 kts 43°
2026-04-22 13:49 -6.22865 118.04761 30695 ft 469 kts 43°
2026-04-22 13:50 -6.20444 118.06995 29578 ft 477 kts 43°
2026-04-22 13:50 -6.18028 118.09223 29338 ft 463 kts 43°
2026-04-22 13:50 -6.15710 118.11362 29212 ft 449 kts 43°
2026-04-22 13:50 -6.13438 118.13457 29028 ft 438 kts 44°
2026-04-22 13:51 -6.11215 118.15509 28520 ft 434 kts 44°
2026-04-22 13:51 -6.08990 118.17562 28010 ft 431 kts 44°
2026-04-22 13:51 -6.06797 118.19585 27523 ft 428 kts 44°
2026-04-22 13:51 -6.04594 118.21617 27028 ft 424 kts 44°
2026-04-22 13:52 -6.02449 118.23595 26501 ft 421 kts 44°
2026-04-22 13:52 -6.00283 118.25592 25989 ft 418 kts 44°
2026-04-22 13:52 -5.98158 118.27551 25538 ft 414 kts 44°
2026-04-22 13:52 -5.96045 118.29500 24991 ft 412 kts 43°
2026-04-22 13:53 -5.93961 118.31420 24532 ft 407 kts 44°
2026-04-22 13:53 -5.91864 118.33352 24066 ft 403 kts 43°
2026-04-22 13:53 -5.89830 118.35226 23856 ft 390 kts 43°
2026-04-22 13:53 -5.87839 118.37060 23872 ft 386 kts 44°
2026-04-22 13:54 -5.85838 118.38906 23889 ft 401 kts 44°
2026-04-22 13:54 -5.83763 118.40817 23885 ft 409 kts 44°
2026-04-22 13:54 -5.81656 118.42757 23772 ft 407 kts 43°
2026-04-22 13:54 -5.79593 118.44657 23335 ft 404 kts 44°
2026-04-22 13:55 -5.77518 118.46576 22827 ft 401 kts 44°
2026-04-22 13:55 -5.75481 118.48457 22323 ft 398 kts 44°
2026-04-22 13:55 -5.73446 118.50338 21833 ft 395 kts 43°
2026-04-22 13:55 -5.71436 118.52196 21357 ft 391 kts 44°
2026-04-22 13:56 -5.69434 118.54045 20890 ft 387 kts 43°
2026-04-22 13:56 -5.67459 118.55869 20390 ft 384 kts 43°
2026-04-22 13:56 -5.65493 118.57685 19902 ft 381 kts 43°
2026-04-22 13:56 -5.63554 118.59476 19433 ft 377 kts 43°
2026-04-22 13:57 -5.61627 118.61256 18931 ft 374 kts 43°
2026-04-22 13:57 -5.59718 118.63018 18449 ft 371 kts 43°
2026-04-22 13:57 -5.57826 118.64765 17934 ft 369 kts 43°
2026-04-22 13:57 -5.55954 118.66493 17492 ft 364 kts 43°
2026-04-22 13:58 -5.54116 118.68190 17017 ft 361 kts 43°
2026-04-22 13:58 -5.52259 118.69904 16501 ft 359 kts 43°
2026-04-22 13:58 -5.50436 118.71586 16003 ft 357 kts 43°
2026-04-22 13:58 -5.48609 118.73272 15517 ft 354 kts 43°
2026-04-22 13:59 -5.46799 118.74942 15002 ft 352 kts 43°
2026-04-22 13:59 -5.45001 118.76601 14520 ft 350 kts 43°
2026-04-22 13:59 -5.43203 118.78260 14029 ft 347 kts 43°
2026-04-22 13:59 -5.41453 118.79875 13553 ft 344 kts 43°
2026-04-22 14:00 -5.39692 118.81499 13006 ft 344 kts 43°
2026-04-22 14:00 -5.37948 118.83108 12527 ft 341 kts 43°
2026-04-22 14:00 -5.36190 118.84730 12018 ft 339 kts 43°
2026-04-22 14:00 -5.34475 118.86312 11539 ft 336 kts 43°
2026-04-22 14:01 -5.32788 118.87867 11518 ft 319 kts 43°
2026-04-22 14:01 -5.31232 118.89365 11487 ft 303 kts 50°
2026-04-22 14:01 -5.30170 118.91127 11471 ft 288 kts 69°
2026-04-22 14:01 -5.29776 118.93050 11357 ft 280 kts 84°
2026-04-22 14:02 -5.29649 118.94995 11023 ft 280 kts 85°
2026-04-22 14:02 -5.29568 118.96938 10747 ft 278 kts 86°
2026-04-22 14:02 -5.29520 118.98869 10417 ft 277 kts 87°
2026-04-22 14:02 -5.29490 119.00813 10103 ft 277 kts 88°
2026-04-22 14:03 -5.29471 119.02721 9786 ft 276 kts 88°
2026-04-22 14:03 -5.29457 119.04630 9493 ft 275 kts 88°
2026-04-22 14:03 -5.29446 119.06555 9183 ft 273 kts 88°
2026-04-22 14:03 -5.29437 119.08441 8879 ft 273 kts 88°
2026-04-22 14:04 -5.29429 119.10336 8574 ft 272 kts 88°
2026-04-22 14:04 -5.29421 119.12242 8263 ft 271 kts 88°
2026-04-22 14:04 -5.29413 119.14136 7948 ft 271 kts 88°
2026-04-22 14:04 -5.29406 119.16014 7655 ft 270 kts 88°
2026-04-22 14:05 -5.29399 119.17899 7361 ft 269 kts 88°
2026-04-22 14:05 -5.29391 119.19746 7083 ft 267 kts 88°
2026-04-22 14:05 -5.29377 119.23370 6849 ft 250 kts 88°
2026-04-22 14:06 -5.29370 119.25101 6645 ft 247 kts 88°
2026-04-22 14:06 -5.29362 119.26796 6408 ft 245 kts 89°
2026-04-22 14:06 -5.29355 119.28501 6170 ft 243 kts 88°
2026-04-22 14:06 -5.29348 119.30196 5921 ft 242 kts 88°
2026-04-22 14:07 -5.29341 119.31901 5656 ft 242 kts 89°
2026-04-22 14:07 -5.29334 119.33588 5390 ft 242 kts 88°
2026-04-22 14:07 -5.29327 119.35260 5128 ft 241 kts 89°
2026-04-22 14:07 -5.29320 119.36935 4867 ft 241 kts 89°
2026-04-22 14:08 -5.29312 119.38615 4608 ft 241 kts 89°
2026-04-22 14:08 -5.29305 119.40292 4366 ft 239 kts 89°
2026-04-22 14:08 -5.29110 119.41943 4109 ft 236 kts 68°
2026-04-22 14:08 -5.28174 119.43237 3925 ft 230 kts 39°
2026-04-22 14:09 -5.26931 119.44183 3824 ft 219 kts 37°
2026-04-22 14:09 -5.25659 119.45033 3549 ft 218 kts 30°
2026-04-22 14:09 -5.24338 119.45762 3289 ft 216 kts 29°
2026-04-22 14:09 -5.23022 119.46502 3023 ft 215 kts 30°
2026-04-22 14:10 -5.21724 119.47253 2755 ft 215 kts 30°
2026-04-22 14:10 -5.20467 119.47974 2512 ft 199 kts 30°
2026-04-22 14:10 -5.19308 119.48637 2229 ft 184 kts 30°
2026-04-22 14:10 -5.18237 119.49252 1995 ft 170 kts 30°
2026-04-22 14:11 -5.17243 119.49822 1792 ft 160 kts 30°
2026-04-22 14:11 -5.16291 119.50367 1609 ft 149 kts 30°
2026-04-22 14:11 -5.15405 119.50874 1394 ft 144 kts 30°
2026-04-22 14:11 -5.14530 119.51377 1218 ft 144 kts 30°
2026-04-22 14:12 -5.13656 119.51878 1032 ft 142 kts 30°
2026-04-22 14:12 -5.12819 119.52357 840 ft 137 kts 30°
2026-04-22 14:12 -5.11986 119.52834 681 ft 139 kts 31°
2026-04-22 14:12 -5.11141 119.53319 509 ft 139 kts 31°
2026-04-22 14:13 -5.10282 119.53798 307 ft 140 kts 29°
2026-04-22 14:13 -5.09444 119.54279 133 ft 138 kts 31°
2026-04-22 14:13 -5.08621 119.54754 63 ft 120 kts 30°
2026-04-22 14:13 -5.08142 119.55030 63 ft 42 kts 30°
2026-04-22 14:14 -5.07934 119.55150 63 ft 19 kts 30°
2026-04-22 14:14 -5.07784 119.55238 63 ft 25 kts 28°
2026-04-22 14:14 -5.07699 119.55225 63 ft 11 kts 300°
2026-04-22 14:14 -5.07668 119.55173 63 ft 2 kts 301°
2026-04-22 14:15 -5.07652 119.55146 63 ft 4 kts 300°
2026-04-22 14:15 -5.07641 119.55128 63 ft 5 kts 300°
2026-04-22 14:15 -5.07619 119.55089 63 ft 7 kts 300°
2026-04-22 14:15 -5.07594 119.55045 63 ft 6 kts 298°
2026-04-22 14:16 -5.07576 119.55002 63 ft 7 kts 285°
2026-04-22 14:16 -5.07579 119.54954 63 ft 4 kts 240°
2026-04-22 14:16 -5.07610 119.54929 63 ft 6 kts 211°
2026-04-22 14:16 -5.07655 119.54903 63 ft 8 kts 211°
2026-04-22 14:17 -5.07705 119.54874 63 ft 8 kts 211°
2026-04-22 14:17 -5.07737 119.54836 62 ft 6 kts 272°
2026-04-22 14:17 -5.07731 119.54816 62 ft 3 kts 293°